Location: Castro Valley
(37.6940°N, 122.0850°W)
Time: 03:22:32
(UTC-07:00)

Amateur Radio Satellites - All Passes

Search period start: 28 May 2017 02:52
Search period end: 29 May 2017 02:52
Location: Castro Valley, 37.6940°N, 122.0850°W

Satellite Date Start Highest point End Downlink Frequencies (MHz)
Time Altitude Azimuth
PCSat 28 May 02:55:41 02:57:19 11° 42° (NE) 02:58:57 145.827
JUGNU 28 May 03:28:34 03:30:41 12° 173° (S) 03:32:48 437.505
ISS 28 May 03:38:22 03:41:34 52° 224° (SW) 03:44:44 437.550
AO-85 28 May 03:47:24 03:50:47 23° 113° (ESE) 03:54:02 145.980
MOZHAYETS 4 28 May 03:48:48 03:53:24 88° 74° (ENE) 03:58:03
ITUPSAT 1 28 May 03:49:07 03:53:44 50° 260° (W) 03:58:24 437.325
ITAMSAT 1 28 May 03:50:14 03:54:43 28° 96° (E) 03:59:11 435.822/435.867
AO-7 28 May 04:00:59 04:08:39 38° 99° (E) 04:16:16 .
Gurwin Techsat 1B 28 May 04:15:49 04:19:54 23° 294° (WNW) 04:23:59 435.225
BEESAT 28 May 04:22:39 04:26:21 22° 265° (W) 04:30:04 436.000
O/OREOS (USA 219) 28 May 04:26:22 04:30:54 58° 293° (WNW) 04:35:27 437.305
Oscar 19 28 May 04:27:10 04:28:21 11° 300° (WNW) 04:29:32 437.125/150
KKS-1 28 May 04:30:17 04:34:17 34° 71° (ENE) 04:38:18 437.445
PCSat 28 May 04:36:17 04:41:43 69° 61° (ENE) 04:47:07 145.827
CUBESAT XI-V 28 May 04:39:21 04:43:55 52° 74° (ENE) 04:48:30 437.345
RS-15 28 May 04:48:12 04:58:50 33° 322° (NW) 05:09:39 29.354- 29.394
STARS 28 May 04:56:39 05:00:20 28° 70° (ENE) 05:04:03 437.465
BEESAT 2 28 May 05:14:51 05:17:59 23° 112° (ESE) 05:21:09 435.950
JUGNU 28 May 05:16:12 05:18:49 13° 183° (S) 05:21:27 437.505
AO-85 28 May 05:27:27 05:31:02 28° 307° (NW) 05:34:30 145.980
ITAMSAT 1 28 May 05:29:33 05:34:07 32° 292° (WNW) 05:38:42 435.822/435.867
BEESAT 3 28 May 05:30:04 05:34:01 76° 301° (WNW) 05:38:01 437.485
AO-7 28 May 05:53:36 06:01:25 46° 296° (WNW) 06:09:13 .
SRMSAT 28 May 05:59:48 06:01:50 12° 172° (S) 06:03:52 437.500
KKS-1 28 May 06:07:45 06:10:54 19° 266° (W) 06:14:03 437.445
CUBESAT XI-V 28 May 06:19:04 06:21:33 14° 268° (W) 06:24:03 437.345
PCSat 28 May 06:21:43 06:24:27 14° 257° (WSW) 06:27:10 145.827
XW-2D 28 May 06:28:06 06:30:53 19° 94° (E) 06:33:38 145.860 - 145.880
STARS 28 May 06:33:12 06:36:38 23° 264° (W) 06:40:06 437.465
XW-2B 28 May 06:35:51 06:38:56 23° 95° (E) 06:41:59 145.730 - 145.750
NUDT-PHONESAT 28 May 06:40:43 06:43:32 20° 95° (E) 06:46:19 437.300
SO-50 28 May 06:41:50 06:45:46 28° 51° (NE) 06:49:41 436.795
STRAND 1 28 May 06:45:48 06:49:39 22° 66° (ENE) 06:53:32 437.568
XW-2F 28 May 06:46:52 06:50:16 30° 97° (E) 06:53:38 145.980 - 146.000
XW-2C 28 May 06:49:14 06:52:46 34° 98° (E) 06:56:16 145.795 - 145.815
KAITUO 1B 28 May 06:51:26 06:54:43 27° 96° (E) 06:57:58 145.475/437.950
BEESAT 2 28 May 06:52:08 06:55:36 28° 308° (NW) 06:59:05 435.950
DOVE 4 28 May 06:54:59 06:59:10 81° 100° (E) 07:03:32 437.250
RS-15 28 May 07:09:32 07:17:03 17° 357° (N) 07:24:30 29.354- 29.394
LilacSat-2 28 May 07:29:15 07:33:06 65° 284° (WNW) 07:36:54 437.200
HO-68 28 May 07:31:38 07:37:15 24° 94° (E) 07:42:48 435.675
CUTE-I 28 May 07:37:04 07:42:27 89° 281° (W) 07:47:48 437.470
SRMSAT 28 May 07:47:24 07:50:08 13° 183° (S) 07:52:53 437.500
XW-2D 28 May 08:01:48 08:05:01 26° 289° (WNW) 08:08:13 145.860 - 145.880
NO-84 28 May 08:03:19 08:07:37 58° 131° (SE) 08:11:53 435.350 FM
M-CUBED/EXP-1 PRIME 28 May 08:05:48 08:09:33 32° 68° (ENE) 08:13:04 437.505
CUTE 1.7 + AOD 2 28 May 08:06:17 08:10:15 37° 98° (E) 08:14:11 437.475
XW-2B 28 May 08:10:01 08:12:59 22° 290° (WNW) 08:15:57 145.730 - 145.750
AAUSAT CUBESAT 2 28 May 08:12:29 08:13:58 12° 91° (E) 08:15:28 437.432
NUDT-PHONESAT 28 May 08:14:18 08:17:21 24° 289° (WNW) 08:20:23 437.300
XW-2A 28 May 08:14:28 08:17:43 37° 99° (E) 08:20:56 145.665 - 145.685
XW-2F 28 May 08:21:40 08:24:08 17° 292° (WNW) 08:26:36 145.980 - 146.000
SO-50 28 May 08:22:15 08:26:09 29° 247° (WSW) 08:30:03 436.795
STRAND 1 28 May 08:23:47 08:28:32 40° 261° (W) 08:33:21 437.568
XW-2C 28 May 08:24:25 08:26:38 15° 292° (WNW) 08:28:52 145.795 - 145.815
KAITUO 1B 28 May 08:25:56 08:28:30 18° 291° (WNW) 08:31:03 145.475/437.950
ZACube-1 28 May 08:43:47 08:46:44 17° 93° (E) 08:49:40 437.345
SEEDS 28 May 08:51:41 08:55:54 84° 100° (E) 09:00:05 437.485
CUBEBUG 2 28 May 09:03:20 09:07:59 84° 102° (ESE) 09:12:43 437.445
UWE-3 28 May 09:09:40 09:14:14 58° 100° (E) 09:18:50 435.000/436.395/437.385
HO-68 28 May 09:18:16 09:25:19 59° 290° (WNW) 09:32:20 435.675
CUTE-I 28 May 09:20:19 09:21:40 11° 300° (WNW) 09:23:00 437.470
RS-15 28 May 09:25:30 09:35:41 29° 33° (NNE) 09:45:28 29.354- 29.394
Oscar 11 28 May 09:34:39 09:38:48 41° 99° (E) 09:42:54 .
M-CUBED/EXP-1 PRIME 28 May 09:40:57 09:43:57 19° 259° (W) 09:46:50 437.505
NO-84 28 May 09:41:56 09:45:29 24° 327° (NNW) 09:48:58 435.350 FM
CUTE 1.7 + AOD 2 28 May 09:43:02 09:45:45 17° 293° (WNW) 09:48:28 437.475
TIGRISAT 28 May 09:44:42 09:48:18 27° 69° (ENE) 09:51:57 435.000
AAUSAT CUBESAT 2 28 May 09:45:42 09:49:41 48° 286° (WNW) 09:53:37 437.432
PRISM 28 May 09:48:00 09:51:53 42° 73° (ENE) 09:55:47 437.425
DELFI C3 28 May 09:48:21 09:50:23 14° 93° (E) 09:52:24 145.870
XW-2A 28 May 09:49:14 09:50:05 11° 293° (WNW) 09:50:55 145.665 - 145.685
AO-73 28 May 10:03:26 10:07:59 70° 284° (WNW) 10:12:32 145.935
UNISAT 6 28 May 10:16:16 10:20:30 69° 75° (ENE) 10:24:50 437.425
FO-29 28 May 10:17:55 10:23:04 71° 74° (ENE) 10:28:22 435.910
ZACube-1 28 May 10:18:50 10:23:08 42° 287° (WNW) 10:27:28 437.345
UWE-3 28 May 10:47:55 10:50:10 14° 295° (WNW) 10:52:27 435.000/436.395/437.385
EO-88 28 May 10:54:59 10:58:40 69° 101° (E) 11:02:19 145.990 - 145.960
YUBILEINY 28 May 11:02:47 11:08:19 18° 64° (ENE) 11:13:48 435.215
NANOSAT C BR1 28 May 11:06:34 11:08:35 13° 65° (ENE) 11:10:37 145.865
HO-68 28 May 11:11:11 11:11:33 10° 309° (NW) 11:11:54 435.675
Oscar 11 28 May 11:11:53 11:14:33 16° 294° (WNW) 11:17:13 .
POLYITAN 1 28 May 11:12:13 11:14:59 17° 67° (ENE) 11:17:46 437.675
DUCHIFAT 1 28 May 11:15:43 11:18:07 15° 66° (ENE) 11:20:32 145.980
QB50P2 28 May 11:20:22 11:23:42 23° 69° (ENE) 11:27:02 145.880/145.840
TIGRISAT 28 May 11:21:33 11:24:56 23° 265° (W) 11:28:22 435.000
DELFI C3 28 May 11:21:40 11:25:17 36° 287° (WNW) 11:28:53 145.870
PRISM 28 May 11:25:14 11:27:20 14° 267° (W) 11:29:25 437.425
LO-87 28 May 11:32:03 11:34:51 22° 96° (E) 11:37:40 145.935 - 145.965
RS-15 28 May 11:38:01 11:50:17 84° 60° (ENE) 12:01:51 29.354- 29.394
ESTCUBE 1 28 May 11:44:53 11:48:11 20° 94° (E) 11:51:26 437.505/2401.250
AIST 2D 28 May 11:53:45 11:57:14 67° 259° (W) 12:00:46 435.315
EO-79 28 May 11:55:52 11:59:56 55° 75° (ENE) 12:04:04 145.935-145.965
FO-29 28 May 12:07:44 12:08:49 11° 271° (W) 12:09:55 435.910
AO-85 28 May 12:20:19 12:22:26 14° 47° (NE) 12:24:34 145.980
Oscar 19 28 May 12:23:52 12:26:01 13° 61° (ENE) 12:28:09 437.125/150
VELOX 1 28 May 12:32:09 12:34:46 15° 93° (E) 12:37:21 145.980
NANOSAT C BR1 28 May 12:39:51 12:43:51 47° 260° (W) 12:47:55 145.865
POLYITAN 1 28 May 12:46:38 12:50:28 35° 262° (W) 12:54:20 437.675
DUCHIFAT 1 28 May 12:49:31 12:53:25 40° 261° (W) 12:57:22 145.980
QB50P2 28 May 12:55:51 12:59:21 26° 264° (W) 13:02:53 145.880/145.840
YUBILEINY 28 May 12:57:25 13:06:19 89° 263° (W) 13:15:09 435.215
BUGSAT 1 28 May 12:59:00 13:02:58 71° 76° (ENE) 13:06:58 437.445
O/OREOS (USA 219) 28 May 13:00:02 13:03:09 18° 58° (ENE) 13:06:14 437.305
DX 1 28 May 13:02:33 13:03:17 10° 91° (E) 13:04:01 434.975-435.025
LO-87 28 May 13:05:34 13:08:09 19° 290° (WNW) 13:10:43 145.935 - 145.965
ESTCUBE 1 28 May 13:20:58 13:25:01 34° 289° (WNW) 13:29:03 437.505/2401.250
EO-79 28 May 13:35:12 13:36:01 10° 269° (W) 13:36:51 145.935-145.965
BEESAT 2 28 May 13:35:49 13:36:27 10° 43° (NE) 13:37:05 435.950
SPROUT 28 May 13:45:01 13:49:17 70° 284° (WNW) 13:53:32 437.525
BEESAT 3 28 May 13:48:43 13:52:22 32° 53° (NE) 13:55:57 437.485
RS-15 28 May 13:52:30 14:01:09 24° 260° (W) 14:09:34 29.354- 29.394
Gurwin Techsat 1B 28 May 13:54:20 13:59:30 56° 73° (ENE) 14:04:42 435.225
AO-85 28 May 13:59:05 14:03:07 60° 242° (WSW) 14:07:23 145.980
Oscar 19 28 May 13:59:25 14:04:38 78° 258° (WSW) 14:09:50 437.125/150
50 SAT 28 May 14:02:37 14:06:02 77° 282° (WNW) 14:09:23 437.505
VELOX 1 28 May 14:07:14 14:11:22 42° 288° (WNW) 14:15:29 145.980
UKube-1 28 May 14:23:19 14:27:36 65° 102° (ESE) 14:31:52 .
DX 1 28 May 14:35:33 14:39:49 60° 286° (WNW) 14:44:04 434.975-435.025
O/OREOS (USA 219) 28 May 14:38:30 14:42:43 40° 255° (WSW) 14:46:54 437.305
NO-84 28 May 14:40:04 14:42:52 19° 30° (NNE) 14:45:31 435.350 FM
YUBILEINY 28 May 14:57:00 15:01:45 16° 283° (WNW) 15:06:32 435.215
AO-7 28 May 14:57:54 15:05:37 45° 64° (ENE) 15:13:22 .
ITAMSAT 1 28 May 15:06:20 15:11:01 36° 69° (ENE) 15:15:43 435.822/435.867
BEESAT 2 28 May 15:10:43 15:14:47 87° 244° (WSW) 15:18:49 435.950
BEESAT 3 28 May 15:26:49 15:29:42 19° 249° (WSW) 15:32:32 437.485
Gurwin Techsat 1B 28 May 15:36:31 15:39:46 16° 268° (W) 15:43:02 435.225
MOZHAYETS 4 28 May 15:46:15 15:49:59 24° 95° (E) 15:53:41
ITUPSAT 1 28 May 15:51:15 15:55:54 47° 100° (E) 16:00:31 437.325
UKube-1 28 May 16:02:04 16:03:03 11° 297° (WNW) 16:04:00 .
NO-84 28 May 16:17:07 16:20:45 54° 229° (SW) 16:24:02 435.350 FM
BEESAT 28 May 16:23:09 16:27:58 78° 285° (WNW) 16:32:44 436.000
CUBESAT XI-V 28 May 16:39:12 16:41:47 15° 92° (E) 16:44:22 437.345
ITAMSAT 1 28 May 16:46:23 16:50:31 24° 265° (W) 16:54:41 435.822/435.867
AO-7 28 May 16:50:51 16:58:23 38° 261° (W) 17:05:59 .
CUTE-I 28 May 17:19:57 17:22:55 15° 62° (ENE) 17:25:52 437.470
MOZHAYETS 4 28 May 17:23:03 17:27:07 31° 290° (WNW) 17:31:09
XW-2F 28 May 17:27:40 17:29:09 12° 66° (ENE) 17:30:38 145.980 - 146.000
XW-2C 28 May 17:30:02 17:31:59 14° 67° (ENE) 17:33:56 145.795 - 145.815
ITUPSAT 1 28 May 17:30:09 17:33:20 18° 295° (WNW) 17:36:29 437.325
KAITUO 1B 28 May 17:31:53 17:32:47 11° 66° (ENE) 17:33:40 145.475/437.950
PCSat 28 May 17:37:31 17:38:33 10° 102° (ESE) 17:39:35 145.827
DOVE 4 28 May 17:58:19 18:02:52 65° 76° (ENE) 18:07:11 437.250
KKS-1 28 May 17:58:46 18:03:13 89° 288° (WNW) 18:07:40 437.445
HO-68 28 May 18:00:31 18:04:28 16° 55° (NE) 18:08:24 435.675
LilacSat-2 28 May 18:08:55 18:12:33 43° 74° (ENE) 18:16:14 437.200
CUBESAT XI-V 28 May 18:14:56 18:19:24 48° 287° (WNW) 18:23:49 437.345
STARS 28 May 18:23:02 18:27:25 71° 102° (ESE) 18:31:48 437.465
XW-2D 28 May 18:40:09 18:43:56 73° 257° (WSW) 18:47:47 145.860 - 145.880
ISS 28 May 18:42:38 18:43:56 12° 128° (SE) 18:45:15 437.550
XW-2B 28 May 18:48:14 18:51:59 59° 260° (W) 18:55:46 145.730 - 145.750
NUDT-PHONESAT 28 May 18:50:39 18:54:20 72° 258° (WSW) 18:58:06 437.300
CUTE-I 28 May 18:57:06 19:02:21 66° 258° (WSW) 19:07:39 437.470
CUTE 1.7 + AOD 2 28 May 18:57:23 19:00:41 22° 69° (ENE) 19:03:58 437.475
XW-2F 28 May 18:59:14 19:02:51 43° 261° (W) 19:06:31 145.980 - 146.000
XW-2C 28 May 19:02:16 19:05:48 37° 262° (W) 19:09:24 145.795 - 145.815
KAITUO 1B 28 May 19:02:40 19:06:18 48° 261° (W) 19:10:00 145.475/437.950
PCSat 28 May 19:15:41 19:21:07 87° 300° (WNW) 19:26:35 145.827
Tancredo 1 28 May 19:21:48 19:24:49 55° 137° (SE) 19:27:50 437.200
SEEDS 28 May 19:41:06 19:45:07 43° 73° (ENE) 19:49:09 437.485
HO-68 28 May 19:43:57 19:51:08 86° 72° (ENE) 19:58:22 435.675
LilacSat-2 28 May 19:45:50 19:47:02 11° 269° (W) 19:48:15 437.200
CUBEBUG 2 28 May 19:59:37 20:03:38 51° 74° (ENE) 20:07:46 437.445
STARS 28 May 20:02:33 20:03:08 10° 297° (WNW) 20:03:44 437.465
UWE-3 28 May 20:04:59 20:08:47 34° 72° (ENE) 20:12:40 435.000/436.395/437.385
XW-2A 28 May 20:16:15 20:19:24 39° 261° (W) 20:22:35 145.665 - 145.685
ISS 28 May 20:16:47 20:20:03 61° 322° (NW) 20:23:19 437.550
Oscar 11 28 May 20:27:45 20:31:20 26° 70° (ENE) 20:34:56 .
CUTE 1.7 + AOD 2 28 May 20:32:36 20:36:19 29° 264° (W) 20:40:04 437.475
AAUSAT CUBESAT 2 28 May 20:33:09 20:37:20 82° 77° (ENE) 20:41:32 437.432
STRAND 1 28 May 20:35:36 20:40:47 80° 103° (ESE) 20:45:57 437.568
SO-50 28 May 20:56:20 20:58:26 13° 108° (ESE) 21:00:34 436.795
AO-73 28 May 20:56:40 21:00:51 69° 76° (ENE) 21:05:10 145.935
Tancredo 1 28 May 20:58:38 21:00:47 17° 334° (NNW) 21:02:55 437.200
PCSat 28 May 21:02:36 21:05:19 14° 316° (NW) 21:08:01 145.827
ZACube-1 28 May 21:12:12 21:16:24 69° 259° (W) 21:20:43 437.345
SEEDS 28 May 21:18:43 21:20:59 14° 268° (W) 21:23:15 437.485
M-CUBED/EXP-1 PRIME 28 May 21:20:25 21:23:07 23° 102° (ESE) 21:25:48 437.505
FO-29 28 May 21:30:23 21:32:36 12° 90° (E) 21:34:53 435.910
EO-88 28 May 21:31:22 21:34:12 22° 70° (ENE) 21:37:04 145.990 - 145.960
HO-68 28 May 21:35:46 21:39:36 15° 270° (W) 21:43:27 435.675
CUBEBUG 2 28 May 21:39:20 21:40:35 11° 269° (W) 21:41:50 437.445
UWE-3 28 May 21:42:34 21:45:21 17° 267° (W) 21:48:11 435.000/436.395/437.385
ISS 28 May 21:55:33 21:57:06 13° 340° (NNW) 21:58:38 437.550
Oscar 11 28 May 22:03:47 22:07:22 25° 265° (W) 22:10:58 .
DELFI C3 28 May 22:04:21 22:08:20 89° 78° (ENE) 22:12:20 145.870
UNISAT 6 28 May 22:10:25 22:13:35 18° 93° (E) 22:16:44 437.425
STRAND 1 28 May 22:17:20 22:19:15 12° 299° (WNW) 22:21:10 437.568
SO-50 28 May 22:33:51 22:38:23 60° 303° (WNW) 22:42:53 436.795
ESTCUBE 1 28 May 22:43:15 22:45:56 16° 65° (ENE) 22:48:38 437.505/2401.250
M-CUBED/EXP-1 PRIME 28 May 22:55:30 22:57:24 15° 297° (WNW) 22:59:17 437.505
EO-88 28 May 23:05:02 23:07:47 20° 265° (W) 23:10:34 145.990 - 145.960
PRISM 28 May 23:05:53 23:09:57 89° 298° (WNW) 23:14:01 437.425
FO-29 28 May 23:11:31 23:18:12 79° 103° (ESE) 23:25:41 435.910
TIGRISAT 28 May 23:13:16 23:17:55 81° 102° (ESE) 23:22:37 435.000
VELOX 1 28 May 23:28:52 23:30:28 12° 64° (ENE) 23:32:04 145.980
LO-87 28 May 23:38:37 23:42:07 65° 259° (W) 23:45:39 145.935 - 145.965
EO-79 28 May 23:45:17 23:45:49 10° 91° (E) 23:46:22 145.935-145.965
UNISAT 6 28 May 23:46:03 23:50:24 41° 288° (WNW) 23:54:47 437.425
RS-15 28 May 23:54:34 23:58:51 13° 94° (E) 00:03:11 29.354- 29.394
YUBILEINY 29 May 00:02:27 00:08:24 21° 80° (E) 00:14:22 435.215
ESTCUBE 1 29 May 00:17:57 00:22:19 47° 261° (W) 00:26:43 437.505/2401.250
NANOSAT C BR1 29 May 00:25:56 00:29:40 29° 97° (E) 00:33:24 145.865
POLYITAN 1 29 May 00:32:49 00:36:51 39° 98° (E) 00:40:52 437.675
50 SAT 29 May 00:33:13 00:36:07 25° 72° (ENE) 00:39:00 437.505
DUCHIFAT 1 29 May 00:35:04 00:38:56 33° 98° (E) 00:42:46 145.980
SPROUT 29 May 00:36:03 00:40:14 66° 76° (ENE) 00:44:27 437.525
QB50P2 29 May 00:41:31 00:45:43 55° 100° (E) 00:49:55 145.880/145.840
BUGSAT 1 29 May 00:44:21 00:45:55 12° 92° (E) 00:47:28 437.445
AIST 2D 29 May 00:53:46 00:57:07 40° 286° (WNW) 01:00:28 435.315
FO-29 29 May 00:58:19 01:02:40 19° 297° (WNW) 01:07:17 435.910
VELOX 1 29 May 01:02:00 01:06:21 61° 259° (W) 01:10:44 145.980
ISS 29 May 01:10:49 01:12:35 14° 21° (NNE) 01:14:21 437.550
UKube-1 29 May 01:15:43 01:19:46 42° 72° (ENE) 01:23:51 .
EO-79 29 May 01:17:42 01:21:54 59° 285° (WNW) 01:26:06 145.935-145.965
DX 1 29 May 01:28:41 01:33:02 90° 258° (WSW) 01:37:24 434.975-435.025
Tancredo 1 29 May 01:48:24 01:51:11 30° 33° (NNE) 01:53:56 437.200
YUBILEINY 29 May 01:55:29 02:04:11 74° 278° (W) 02:12:59 435.215
RS-15 29 May 01:56:59 02:08:49 67° 113° (ESE) 02:21:00 29.354- 29.394
NANOSAT C BR1 29 May 02:01:59 02:05:11 21° 292° (WNW) 02:08:23 145.865
50 SAT 29 May 02:06:56 02:08:58 15° 266° (W) 02:11:01 437.505
POLYITAN 1 29 May 02:09:36 02:12:17 16° 294° (WNW) 02:14:58 437.675
DUCHIFAT 1 29 May 02:11:22 02:14:20 19° 292° (WNW) 02:17:18 145.980
Gurwin Techsat 1B 29 May 02:12:58 02:17:20 25° 95° (E) 02:21:41 435.225
Oscar 19 29 May 02:13:04 02:17:58 42° 99° (E) 02:22:48 437.125/150
BUGSAT 1 29 May 02:17:29 02:21:30 49° 286° (WNW) 02:25:32 437.445
QB50P2 29 May 02:19:20 02:21:00 12° 295° (WNW) 02:22:41 145.880/145.840
